Theta_e
291 293 294 296 296 297 297 298 299 299 298 298 298 299 300 300 300 293 290 292 288 282 284 284 284 285 288 288 287 286 288 286 283 282 283 278 270 277 274 276 279 279 277 273 270 269 276 285 284 285 287 285 286 287
289 291 293 294 295 296 296 297 298 298 299 298 298 299 300 299 299 295 288 292 292 286 285 287 285 286 286 287 288 286 286 285 286 286 281 279 276 275 274 273 279 279 282 280 283 281 286 284 284 284 285 285 284 285
289 290 291 293 294 295 296 297 298 298 298 298 298 299 299 299 298 294 288 288 288 283 284 283 283 286 289 288 289 288 286 289 286 285 285 279 278 277 274 272 278 279 283 282 283 282 283 283 283 283 283 284 285 285
290 290 291 292 293 294 294 296 296 297 297 297 298 298 299 298 298 294 287 288 285 282 278 281 287 284 287 292 293 292 290 289 288 287 281 274 279 281 276 279 279 282 283 278 278 281 282 282 283 284 285 284 284 285
290 290 291 291 292 292 293 294 295 296 296 296 297 298 298 297 296 292 290 289 287 282 276 280 284 285 287 291 290 290 290 288 286 285 284 279 282 276 273 277 277 283 281 281 279 284 284 284 284 285 284 283 283 284
289 290 291 291 292 292 292 293 294 294 295 295 296 297 296 294 291 286 284 288 291 285 279 274 282 282 284 287 286 285 286 285 285 284 282 282 284 280 275 269 280 283 284 286 285 286 285 284 284 283 283 282 282 282
289 289 290 291 292 292 293 293 293 293 294 294 296 296 296 296 290 282 279 287 292 285 277 272 275 282 283 283 283 284 285 283 284 283 282 281 280 279 270 269 279 283 282 283 284 285 283 282 282 281 282 280 278 277
288 289 289 290 291 292 292 293 293 292 294 294 295 295 294 294 289 285 289 291 287 278 275 269 270 277 282 279 279 281 281 282 280 280 281 280 280 280 277 280 281 282 282 282 281 284 285 281 280 278 277 277 278 276
288 289 289 289 291 292 293 293 293 293 293 294 293 293 286 280 277 284 292 290 283 280 269 266 268 269 280 279 279 279 279 276 279 278 279 279 276 276 275 279 280 280 280 281 277 276 277 277 276 275 275 275 274 272
288 288 289 289 289 291 291 291 293 292 292 290 285 276 271 282 289 285 277 275 276 272 272 266 264 269 278 274 273 273 272 272 272 275 278 274 273 275 272 271 272 274 274 275 276 274 273 273 273 271 269 269 270 268
287 287 288 289 289 289 290 290 290 290 288 282 278 276 281 283 275 269 266 267 265 267 268 264 266 271 276 272 269 275 266 267 268 271 272 267 269 271 270 267 267 268 269 268 270 270 270 272 272 270 266 264 263 262
287 287 287 288 288 289 290 291 290 285 283 281 280 277 272 268 265 264 256 261 261 263 265 266 268 270 273 276 274 269 265 266 264 270 268 263 268 263 263 263 262 262 262 261 263 263 263 263 263 262 260 259 258 258
287 287 287 287 287 287 288 290 290 289 286 278 274 270 270 263 262 258 256 258 260 259 263 267 268 271 271 273 268 268 264 261 269 264 265 263 262 259 258 258 260 258 259 259 258 258 258 258 257 256 256 254 253 254
287 287 287 287 287 287 287 289 288 286 274 268 265 263 260 257 254 252 255 255 260 264 264 270 266 268 263 268 265 265 262 264 259 259 262 258 255 254 255 254 255 254 254 254 254 255 256 256 254 251 250 250 251 252
285 285 286 286 286 285 286 288 284 273 268 263 263 259 257 254 251 248 250 257 261 262 265 270 269 272 266 266 263 261 261 258 261 263 258 255 253 253 252 252 251 251 251 251 251 251 253 253 252 252 250 249 249 249
282 281 280 287 285 283 284 278 272 266 257 257 252 255 255 257 258 254 255 258 260 262 266 268 269 265 267 263 261 258 261 260 262 251 251 252 250 250 249 249 250 249 248 249 250 249 251 251 249 248 247 247 247 245
280 272 284 285 281 284 280 263 265 260 254 252 249 249 248 249 250 249 249 256 259 261 265 266 264 264 265 263 259 254 259 255 250 249 250 249 247 247 246 246 247 248 248 248 248 249 248 248 247 248 249 248 246 245
271 276 282 283 276 272 258 256 259 261 253 252 252 250 250 249 249 250 253 257 257 259 264 268 267 263 260 259 258 251 248 246 246 247 249 247 245 244 244 245 247 246 245 245 244 244 244 246 247 248 246 246 247 246
275 277 280 279 272 261 258 256 256 257 254 251 251 250 248 250 252 254 253 255 257 258 257 261 263 258 255 251 249 247 246 246 247 249 246 244 245 243 244 244 244 244 244 243 243 243 242 242 244 244 244 244 245 245
277 278 278 275 271 259 256 254 258 260 257 255 251 250 248 249 249 248 250 254 256 254 251 250 247 245 247 248 247 245 245 246 242 244 245 246 246 243 245 244 247 245 245 242 242 245 243 245 243 243 242 243 243 246
270 270 272 264 258 257 253 251 252 253 254 252 250 251 251 249 247 247 249 253 252 247 249 245 244 243 242 241 242 242 245 245 243 244 244 244 245 244 244 243 241 240 241 241 241 243 243 243 244 243 241 243 244 244
261 270 259 263 259 255 254 253 252 252 252 248 251 249 247 248 248 247 251 250 248 248 248 246 244 241 241 241 240 238 239 238 238 240 244 244 243 244 244 242 243 244 243 242 241 243 243 244 243 243 242 245 246 245
263 263 257 256 257 255 251 254 251 250 251 250 249 250 249 246 249 250 247 246 247 246 242 240 238 236 238 237 235 237 235 236 238 238 240 240 240 241 241 242 239 240 244 245 241 241 243 246 247 247 246 247 247 249
258 249 249 248 250 246 248 249 249 249 248 248 249 249 250 246 251 252 249 244 247 243 241 240 236 240 238 237 238 239 239 238 237 238 239 237 240 244 240 242 241 242 245 245 243 244 244 245 248 246 247 246 247 249
255 245 246 245 245 246 245 246 247 250 248 246 248 251 250 246 251 250 248 247 242 240 240 237 236 238 240 239 240 240 236 239 241 242 242 241 239 239 242 242 244 245 243 241 242 242 242 242 243 244 245 244 245 245
243 238 242 237 242 244 240 244 241 241 240 245 244 244 243 248 250 250 247 245 242 242 242 242 242 241 241 244 242 241 245 240 238 239 243 241 242 242 241 242 245 247 242 243 241 241 240 243 243 243 245 245 247 246
246 241 237 235 236 236 239 238 237 239 241 243 240 241 241 246 247 249 246 244 245 244 243 242 243 244 245 245 244 245 242 239 243 244 240 239 241 242 244 246 245 246 241 242 243 242 242 244 243 243 244 245 244 245
237 234 242 237 236 232 238 235 237 241 239 236 237 243 246 247 249 248 249 245 240 236 237 238 239 242 243 244 243 240 241 235 235 238 241 243 244 245 245 246 247 251 247 244 245 245 243 244 244 244 244 245 246 246
236 231 233 239 235 237 238 241 240 236 236 234 239 241 243 243 242 240 242 238 232 236 240 243 243 233 237 239 240 241 240 237 240 243 243 246 243 247 242 243 243 243 243 243 247 251 246 245 245 246 246 246 247 248
236 228 236 234 240 244 240 235 234 229 228 231 230 235 238 239 240 236 235 235 239 244 243 240 237 236 242 238 244 244 240 240 242 246 246 248 249 244 239 240 242 243 243 241 244 245 249 248 247 243 244 245 245 247
231 230 235 234 238 235 231 225 224 225 226 227 225 230 235 235 237 239 239 240 239 235 237 243 244 240 240 241 238 239 248 244 242 243 245 247 247 247 247 247 247 245 244 244 244 244 244 244 244 243 244 244 245 245
232 234 238 242 241 232 228 229 228 230 229 230 231 225 231 233 240 247 243 238 237 239 244 243 242 249 247 248 247 247 250 252 247 246 244 246 246 247 248 248 247 245 245 244 244 244 243 242 243 244 245 245 245 245
230 228 229 234 239 240 235 234 235 237 233 233 235 233 232 236 245 249 244 243 249 249 250 250 250 250 247 247 248 249 249 249 249 252 254 253 251 250 249 248 247 246 246 245 245 246 245 244 244 244 245 245 245 246
Wind_Speed
19 20 17 9 6 9 7 7 10 11 10 7 6 7 8 9 8 3 2 4 1 3 5 8 6 4 3 3 8 6 6 3 3 5 4 4 4 7 5 4 10 9 8 5 3 1 15 7 3 17 6 2 2 1
15 16 17 16 13 13 8 9 11 11 11 9 8 8 8 8 9 4 4 3 4 5 2 1 3 4 5 3 5 3 2 6 6 7 2 5 3 3 6 4 2 3 8 8 12 8 2 4 3 1 2 3 3 1
12 12 12 13 14 15 13 13 14 13 13 11 10 11 9 9 13 7 3 3 3 3 2 4 5 8 8 6 5 6 2 5 3 2 5 3 5 4 5 4 5 3 4 4 5 3 2 4 3 2 2 5 3 3
14 12 10 10 11 12 12 10 12 12 13 12 11 11 10 10 14 9 5 4 3 2 4 2 5 4 11 8 7 1 9 5 7 3 4 4 5 2 3 3 4 4 7 7 1 2 3 3 3 6 5 5 6 6
14 14 12 11 10 9 8 8 9 10 12 11 11 11 12 13 15 10 5 4 1 3 4 0 3 8 11 10 16 14 8 6 3 4 2 3 3 4 1 3 1 5 7 6 6 6 5 3 4 4 6 5 5 5
15 15 14 12 10 8 6 6 7 7 8 8 10 10 8 4 2 4 4 3 5 3 5 3 2 5 9 10 11 12 6 6 4 3 3 3 2 3 4 3 3 2 2 2 6 5 6 8 5 2 6 6 7 7
15 13 15 15 13 10 11 9 6 5 7 6 9 11 11 14 6 5 3 4 9 1 5 2 2 5 4 3 3 4 5 4 4 3 3 2 2 4 3 3 2 4 4 4 6 9 7 2 5 6 9 8 8 6
16 12 13 15 16 14 12 13 7 3 6 6 12 17 13 12 9 5 3 10 3 5 4 4 2 2 6 2 3 3 3 3 6 2 1 2 2 2 2 1 4 3 5 6 6 6 7 9 6 6 4 5 11 9
14 12 12 14 19 21 18 18 8 9 8 14 14 9 6 7 4 1 12 2 4 5 4 3 4 2 4 3 1 2 3 4 2 3 2 2 1 3 3 3 5 6 2 6 4 7 8 9 8 7 6 7 10 4
12 13 16 16 17 19 19 17 13 16 15 11 9 5 4 2 8 8 8 6 7 6 5 4 2 2 3 3 4 3 3 2 3 2 2 3 3 8 8 8 8 9 8 6 5 5 4 7 6 6 8 6 6 4
12 15 16 19 19 19 17 18 12 9 12 4 3 2 2 9 4 5 4 5 4 5 4 1 1 3 4 3 2 4 2 2 4 3 2 1 1 4 8 10 10 11 11 11 10 10 9 8 6 7 6 6 6 5
13 14 16 18 19 19 19 19 16 4 2 3 5 3 3 6 5 8 2 4 5 1 4 2 2 0 1 2 4 3 3 3 2 2 3 1 2 6 8 10 11 12 10 11 11 10 10 11 7 7 6 5 4 3
16 15 15 15 16 16 16 16 13 11 5 3 5 6 5 4 9 6 1 4 2 2 2 3 2 2 3 3 4 3 6 1 1 4 3 2 4 6 7 7 7 10 10 10 10 7 8 8 9 7 5 4 3 4
17 16 16 15 15 15 14 16 15 8 6 6 5 6 4 5 2 4 4 3 3 2 2 1 2 3 1 6 1 6 1 4 4 2 5 1 3 4 5 6 5 7 8 8 8 8 9 7 6 4 5 3 3 5
13 12 20 18 13 9 9 13 14 7 6 5 5 3 4 3 1 3 3 2 3 3 2 1 3 3 3 5 3 4 4 1 4 5 1 2 4 4 5 5 5 6 6 6 5 5 5 5 4 4 5 5 4 3
5 8 10 21 9 4 4 10 7 5 6 6 10 4 2 3 3 4 4 2 4 5 2 1 3 5 4 4 4 3 6 5 3 1 1 2 1 2 2 3 4 3 3 4 4 3 3 5 4 4 4 4 4 3
13 4 19 17 12 10 14 7 5 9 6 7 3 2 1 2 2 2 2 4 5 3 2 2 5 1 1 4 2 2 4 2 2 1 1 1 1 3 3 3 4 4 4 4 4 4 3 4 2 4 6 6 6 4
3 6 20 17 6 7 6 7 6 6 8 2 4 3 1 1 0 2 3 3 4 3 3 2 3 4 3 4 3 2 1 2 2 1 1 1 1 2 2 3 4 4 4 4 3 4 3 5 4 3 4 4 5 4
5 13 19 16 7 7 6 7 5 6 3 1 1 1 1 0 1 1 3 3 2 1 2 3 4 2 2 0 1 2 2 1 1 2 3 3 3 2 4 3 3 3 3 3 2 1 2 3 3 2 3 2 2 3
7 19 22 17 10 6 8 5 3 5 3 1 2 3 2 1 2 2 3 5 3 3 8 6 1 2 2 1 2 2 2 1 1 3 2 2 2 2 3 2 2 3 3 2 2 1 2 2 1 2 2 2 2 4
10 10 16 8 6 9 6 3 5 2 1 3 3 3 2 3 4 5 5 5 5 4 2 2 3 3 2 2 1 1 2 3 4 4 4 3 2 2 4 3 2 2 0 2 2 3 1 3 3 3 2 3 4 4
3 12 5 8 7 6 6 3 3 1 4 1 3 3 4 4 4 4 4 6 3 1 0 1 2 2 2 2 3 5 3 2 2 3 4 3 4 3 3 2 3 4 3 3 3 4 4 3 3 3 3 4 4 4
8 7 7 10 8 9 3 4 6 7 5 5 3 5 4 4 2 2 4 1 3 1 1 2 3 3 3 4 3 4 4 3 3 3 4 4 4 4 4 5 3 3 4 4 2 2 3 5 5 4 3 3 2 3
13 11 9 7 8 3 4 7 3 4 4 6 5 4 4 3 6 3 2 3 3 1 1 2 0 3 2 2 2 3 4 4 2 4 4 1 4 5 3 4 3 4 5 4 3 3 3 4 5 3 4 3 4 5
11 13 8 9 5 7 8 7 7 6 3 3 3 3 4 4 3 3 1 4 3 2 2 1 0 1 2 4 4 4 3 4 3 4 4 5 2 4 4 4 5 6 3 3 3 3 4 3 3 4 4 4 5 6
12 6 7 2 4 5 1 4 3 2 2 4 1 3 3 2 3 2 4 4 3 4 3 4 3 1 3 5 3 2 3 3 3 2 5 4 5 4 4 4 6 7 3 4 3 4 4 4 5 6 6 7 7 6
8 5 3 0 2 2 2 2 0 2 3 2 3 5 3 3 3 5 3 3 3 4 3 3 4 4 5 4 4 4 3 4 6 5 2 3 5 5 6 8 9 7 3 5 5 5 6 6 6 6 7 7 6 6
3 2 1 4 2 0 4 1 1 1 2 2 2 2 3 6 5 4 5 1 1 0 2 3 4 5 5 6 4 3 4 1 3 6 7 9 10 8 9 8 9 13 7 5 6 6 6 7 7 8 8 10 11 6
3 2 1 3 2 1 3 3 3 3 2 3 3 4 5 5 4 3 3 1 0 2 3 4 3 1 4 5 6 5 4 3 2 4 5 5 4 5 5 5 5 4 5 5 11 13 10 9 10 11 13 11 10 9
3 0 2 1 1 2 3 3 3 2 2 2 2 5 4 6 6 2 2 1 2 5 4 3 2 1 4 1 5 6 4 7 8 7 5 6 6 3 3 4 5 6 5 5 7 8 11 10 9 6 8 8 8 10
0 2 2 1 4 3 2 1 1 1 1 1 1 3 5 7 8 4 5 4 3 1 1 5 4 5 5 5 5 3 7 4 9 11 10 8 7 7 8 7 7 5 5 6 7 8 8 8 8 10 11 13 15 13
2 2 1 3 4 2 2 3 1 1 2 1 3 1 5 4 6 5 4 5 3 3 8 5 4 7 7 7 5 6 9 7 5 8 10 9 10 11 9 8 7 6 7 8 9 9 10 12 11 12 13 17 16 16
1 0 1 3 4 5 4 4 3 5 1 2 4 4 4 4 7 5 2 7 6 5 5 6 7 5 5 7 8 8 8 8 11 13 15 16 16 14 9 7 7 8 9 10 10 10 13 15 15 16 17 17 18 18
Wind_Direction
8 19 20 25 102 96 93 150 147 146 126 101 66 50 56 60 34 66 67 26 52 78 15 355 3 48 37 142 146 163 106 341 33 84 127 171 125 207 101 183 161 145 152 190 66 132 256 163 56 181 195 120 67 354
10 7 11 20 50 61 64 145 146 135 113 91 67 52 78 54 37 58 52 18 6 68 87 348 65 34 14 3 108 40 84 150 173 105 115 118 118 138 147 207 324 161 178 175 183 202 227 192 99 96 44 67 43 37
9 13 8 19 35 46 59 95 112 114 104 88 63 63 66 65 59 80 100 5 44 82 55 25 356 331 4 1 290 118 333 130 77 140 139 148 139 142 148 238 96 289 185 154 93 257 113 134 76 83 81 122 127 72
18 19 23 26 35 47 56 89 94 92 94 83 72 58 59 60 70 79 65 343 45 98 90 354 312 355 318 358 56 42 121 76 104 85 98 124 124 159 193 149 145 201 126 147 20 302 98 157 166 161 123 99 94 75
28 30 26 23 31 44 55 61 91 99 93 85 79 78 77 80 88 89 95 52 46 131 140 62 284 354 1 37 49 48 71 93 53 70 82 111 121 113 358 59 214 200 168 164 198 167 137 129 153 165 123 118 103 123
25 33 37 36 31 43 57 70 95 93 99 87 79 95 70 40 56 61 42 355 19 27 100 57 302 351 1 30 37 42 37 57 79 107 105 91 102 98 106 173 276 229 229 142 158 137 107 122 100 67 106 83 65 72
30 35 39 36 40 44 47 61 89 94 120 121 109 90 69 71 64 73 143 279 325 39 85 69 26 3 341 358 22 23 32 56 65 75 49 93 88 77 91 150 203 188 128 91 105 112 80 63 120 82 100 97 85 71
23 26 43 44 40 41 43 35 41 112 131 115 115 97 86 88 67 38 331 357 23 90 66 94 316 34 1 18 70 354 45 35 34 73 45 61 77 63 50 247 102 117 101 80 50 53 104 112 88 76 67 90 82 68
30 39 52 50 57 43 39 26 63 102 124 111 95 70 52 35 45 278 315 5 40 86 105 77 115 204 350 29 48 49 33 59 354 55 47 32 28 82 344 22 75 8 16 156 71 69 75 88 87 67 69 55 88 67
48 50 54 50 50 62 42 34 57 93 92 74 44 41 15 360 330 334 3 20 18 347 30 90 293 57 24 360 28 51 27 71 74 346 349 52 84 88 42 30 30 17 17 359 95 87 67 76 85 72 65 52 61 50
66 55 45 46 44 43 52 44 34 42 38 39 63 60 260 327 44 34 44 63 327 33 6 298 66 79 341 82 128 4 167 40 87 259 128 16 74 83 31 34 20 21 34 38 59 68 57 77 101 105 79 55 50 43
80 60 50 45 35 31 36 42 37 44 53 115 109 73 31 37 43 75 338 332 47 179 337 69 342 102 0 36 94 347 107 49 116 288 77 6 89 25 24 29 23 18 22 42 36 58 56 61 48 80 71 55 40 26
82 61 47 41 36 28 22 36 28 45 100 50 47 49 35 320 48 88 64 319 4 328 330 9 37 27 11 43 64 61 60 112 276 42 220 203 81 30 10 354 28 24 28 34 35 37 49 60 51 51 73 36 19 37
82 58 41 32 23 23 20 31 15 13 62 64 63 42 71 349 13 173 168 185 268 310 340 352 33 63 314 51 97 78 281 47 48 28 249 62 41 354 12 11 27 7 13 28 24 20 33 44 58 48 52 27 14 29
77 54 30 12 4 20 13 36 31 39 50 57 42 53 41 243 314 259 252 334 330 286 304 19 38 70 14 77 46 100 46 292 198 218 114 44 5 349 15 6 10 14 5 12 3 8 21 18 35 45 26 16 19 5
53 48 1 356 30 57 330 41 30 71 54 57 33 60 332 44 348 17 355 352 345 319 285 28 72 56 38 106 62 197 117 209 243 125 303 332 357 358 352 346 357 348 341 340 352 347 7 19 360 323 325 11 359 7
59 31 338 19 47 89 60 63 37 50 82 50 24 60 150 82 149 293 342 315 319 320 73 65 63 96 93 54 13 193 188 228 197 227 229 237 263 311 325 327 349 350 346 348 347 0 351 326 353 30 17 336 342 335
49 317 13 12 37 50 38 37 72 61 64 16 74 297 8 122 202 327 302 314 348 8 350 63 106 71 140 140 269 252 305 280 216 218 254 239 234 294 283 309 332 328 324 319 316 324 340 6 27 355 321 320 319 336
20 17 18 21 70 85 65 21 41 84 59 359 348 347 139 205 251 263 282 292 250 289 11 23 73 101 156 138 177 244 265 282 306 330 296 281 243 273 299 312 289 314 309 307 325 284 252 226 229 243 264 304 291 298
18 17 9 26 43 70 59 11 6 76 71 321 44 5 102 161 284 325 325 5 6 38 36 41 140 217 179 212 204 213 224 224 99 343 306 279 218 295 302 290 283 302 309 327 312 343 1 355 248 250 274 252 300 294
29 347 7 47 45 60 84 4 46 53 59 69 296 40 342 10 28 10 358 335 56 39 64 229 222 240 225 243 245 232 239 182 206 189 217 280 271 277 290 286 281 315 338 317 311 304 256 240 258 272 264 262 239 243
322 7 45 14 68 49 77 6 106 301 61 232 25 24 26 20 351 347 306 41 52 256 207 227 242 242 314 302 236 200 213 200 234 261 271 275 284 316 315 290 350 317 297 261 239 249 257 256 256 250 248 271 276 272
14 28 45 14 65 41 317 354 58 3 56 334 10 37 12 359 290 332 64 238 256 243 240 224 245 232 237 303 315 277 218 189 257 250 262 254 261 265 269 270 208 235 289 285 217 233 273 293 296 288 276 286 289 295
32 46 37 40 24 16 331 20 31 26 35 27 20 20 356 310 316 39 51 272 255 320 281 243 177 319 322 322 275 258 232 180 245 287 231 232 286 284 222 253 254 237 232 265 242 254 265 267 281 286 280 282 285 285
64 1 26 6 2 26 27 9 356 27 46 347 19 10 357 335 22 43 267 273 298 275 261 265 239 187 194 273 284 274 217 170 196 256 254 199 238 312 289 257 252 247 202 199 242 227 254 280 276 270 264 257 261 268
66 325 47 295 327 52 339 33 18 342 351 354 332 295 344 347 47 282 245 232 233 218 217 198 193 291 270 210 239 276 260 169 131 222 272 193 200 200 252 288 307 299 208 188 157 218 256 264 271 278 282 276 271 275
56 338 341 217 127 123 29 0 64 82 35 1 306 348 26 56 267 255 279 224 213 223 206 185 169 194 231 260 248 251 222 185 206 224 250 232 227 216 214 247 252 241 206 200 197 197 234 265 268 263 267 274 251 244
130 29 83 310 26 322 133 77 49 13 254 221 77 331 174 194 238 236 211 275 178 8 271 249 223 222 238 249 252 268 279 257 285 280 274 256 240 233 227 234 243 254 246 215 227 235 231 243 253 259 259 264 276 252
44 319 128 353 332 0 193 166 223 237 188 120 161 263 252 239 248 242 268 210 143 63 318 301 286 312 261 252 246 234 215 155 140 289 289 277 314 290 198 217 232 232 234 243 253 245 229 232 241 247 251 254 261 265
320 63 65 43 66 272 245 159 215 241 227 202 269 300 277 266 249 211 207 191 227 233 225 224 238 140 265 298 300 301 216 190 202 200 219 254 241 237 202 224 236 237 224 220 248 258 267 278 283 287 278 267 259 260
99 31 22 136 249 258 247 282 325 316 347 281 289 203 264 308 305 240 211 216 206 157 342 273 260 206 217 226 211 263 290 219 210 224 236 259 269 266 262 254 243 232 223 226 238 244 251 255 250 258 259 258 259 253
12 85 19 308 295 293 31 39 326 308 309 341 273 311 300 327 278 278 191 137 113 230 234 217 229 260 210 232 231 234 246 268 233 228 231 239 248 251 255 254 246 235 235 241 242 245 245 244 258 258 261 264 264 262
27 334 221 319 319 338 338 360 6 326 321 278 255 203 224 213 252 282 258 216 217 206 221 219 225 244 233 235 243 256 243 247 252 255 256 249 246 251 252 245 236 234 238 245 249 248 250 248 252 257 259 260 263 264